User: anonymous   Login
Location: Unspecified
(0.0000°N, 0.0000°E)
Time: 09:41:14
(UTC+00:00)
Language:

GGSE 2 - Orbit

View from above orbital plane
View from above orbital plane
View from above satellite
View from above satellite

Ground track
Ground track

The orbit data is extracted from the following two-line orbital elements,

1  1244U 65016B   17295.85695592 -.00000027 +00000-0 +18367-4 0  9991
2  1244 070.0791 072.1513 0023825 280.9473 078.8953 13.95594856677262
Epoch (UTC): 22 October 2017 20:34:00
Eccentricity: 0.0023825
inclination: 70.0791°
perigee height: 892 km
apogee height: 926 km
right ascension of ascending node: 72.1513°
argument of perigee: 280.9473°
revolutions per day: 13.95594856
mean anomaly at epoch: 78.8953°
orbit number at epoch: 67726

The dashed part of the orbit path shows where the satellite is in the earth's shadow,  

DLR